Terug naar catalogus

WEILI KONGJIAN 05-01

ActiefWetenschapLEO
NORAD 69582·PAYLOAD·🇨🇳 China
Deze satellietnaam is nog niet bevestigd door officiële bronnen.

Gelanceerd Jun 17, 2026 vanaf Jiuquan Satellite Launch Center

Loading…

Volgende Passages (komende 24 uur)

TLE

VersSource: Space-Track

Epoch: Sep 14, 2026, 12:59 UTC

1 69582U 26138A   26257.54111185  .00000043  00000-0  11291-3 0  9992
2 69582  55.1411 311.8531 0005798 280.3951  79.6367 14.08054132 12669

Volg WEILI KONGJIAN 05-01 in realtime met AllMySat

Download on the App Store